User: anonymous
Location: General Nathan Twining Observatory
(34.5931°N, 106.8201°W)
Time: 03:06:35
(UTC-06:00)
Language:

Iridium 2 - Orbit

View from above orbital plane
View from above orbital plane
View from above satellite
View from above satellite

Ground track
Ground track

The orbit data is extracted from the following two-line orbital elements,

1 25527U 98066A   14109.32603825  .00010252  00000-0  67799-3 0  1885
2 25527 085.5553 349.8749 0010575 001.5333 051.1646 15.07206858843269
Epoch (UTC): 19 April 2014 07:49:29
Eccentricity: 0.0010575
inclination: 85.5553°
perigee height: 537 km
apogee height: 552 km
right ascension of ascending node: 349.8749°
argument of perigee: 1.5333°
revolutions per day: 15.07206858
mean anomaly at epoch: 51.1646°
orbit number at epoch: 84326

The dashed part of the orbit path shows where the satellite is in the earth's shadow,  

DLR